This demonstration page uses our WeatherBlox Daily Observations layout. Learn more.

Left ArrowRight Arrow

Hourly Observations for March 26, 2020

Temp ( °F °C ) Dew Point ( °F °C ) Humidity (%) Winds ( mph kmh ) Pressure ( in mb ) Visibility ( mi km ) Precip ( " mm )
12:43 am 00:43 Cloudy with Mist and Fog 43 6.1 41 5 93 93 N 14 22 29.85 1011 2.5 4.02335 0 0
12:54 am 00:54 Cloudy with Mist and Fog 43 6.1 41 5 93 93 NNE 16 26 29.83 1010 1.75 2.816345 0 0
1:10 am 01:10 Cloudy with Mist and Fog 43 6.1 41 5 93 93 NNE 15 24 29.85 1011 2 3.21868 0 0
1:33 am 01:33 Cloudy with Mist and Fog 43 6.1 41 5 93 93 N 18 30 29.83 1010 1.75 2.816345 0 0
1:42 am 01:42 Cloudy with Mist and Fog 43 6.1 41 5 93 93 NNE 18 30 29.82 1010 2 3.21868 0 0
1:54 am 01:54 Cloudy with Mist and Fog 43 6.1 41 5 93 93 N 17 28 29.79 1009 2.5 4.02335 0 0
2:27 am 02:27 Cloudy with Mist and Fog 42 5.6 40 4.4 92 92 NNE 14 22 29.83 1010 3 4.82802 0 0
2:54 am 02:54 Cloudy with Mist and Fog 42 5.6 40 4.4 92 92 NNE 17 28 29.79 1009 4 6.43736 0 0
3:13 am 03:13 Cloudy with Mist and Fog 42 5.6 40 4.4 92 92 NNE 16 26 29.82 1010 1.75 2.816345 0 0
3:32 am 03:32 Cloudy with Mist and Fog 42 5.6 40 4.4 92 92 NNE 18 30 29.79 1009 3 4.82802 0 0
3:54 am 03:54 Cloudy with Mist and Fog 42 5.6 40 4.4 92 92 NNE 14 22 29.76 1008 4 6.43736 0 0
4:54 am 04:54 Cloudy with Mist and Fog 41 5 39 3.9 93 93 NNE 15 24 29.74 1007 5 8.0467 0 0
5:54 am 05:54 Cloudy with Mist and Fog 41 5 39 3.9 93 93 NNE 13 20 29.74 1007 6 9.65604 0 0
6:54 am 06:54 Cloudy 41 5 39 3.9 93 93 NE 16 26 29.77 1008 8 12.87472 0 0
7:01 am 07:01 Cloudy 41 5 38 3.3 89 89 ENE 20 31 29.76 1008 8 12.87472 0 0
7:54 am 07:54 Cloudy with Mist and Fog 41 5 38 3.3 89 89 N 15 24 29.8 1009 4 6.43736 0 0
8:54 am 08:54 Cloudy 41 5 38 3.3 89 89 NNE 13 20 29.81 1010 8 12.87472 0 0
9:54 am 09:54 Cloudy 43 6.1 39 3.9 86 86 NNE 13 20 29.84 1011 10 16.0934 0 0
10:54 am 10:54 Cloudy 45 7.2 39 3.9 80 80 NNE 14 22 29.84 1011 10 16.0934 0 0
11:42 am 11:42 Cloudy 46 7.8 39 3.9 77 77 N 14 22 29.85 1011 10 16.0934 0 0
11:54 am 11:54 Cloudy 47 8.3 39 3.9 74 74 NNE 14 22 29.84 1010 10 16.0934 0 0
12:54 pm 12:54 Cloudy 51 10.6 40 4.4 66 66 NE 12 19 29.81 1010 10 16.0934 0 0
1:06 pm 13:06 Mostly Cloudy 53 11.7 40 4.4 61 61 N 15 24 29.8 1009 10 16.0934 0 0
1:54 pm 13:54 Cloudy 53 11.7 40 4.4 61 61 NNE 12 19 29.8 1009 10 16.0934 0 0
2:40 pm 14:40 Partly Cloudy 54 12.2 40 4.4 59 59 N 13 20 29.77 1008 10 16.0934 0 0
2:54 pm 14:54 Mostly Cloudy 55 12.8 41 5 59 59 ENE 9 15 29.76 1008 10 16.0934 0 0
3:29 pm 15:29 Partly Cloudy 56 13.3 41 5 57 57 NE 9 15 29.74 1007 10 16.0934 0 0
3:54 pm 15:54 Partly Cloudy 56 13.3 41 5 57 57 NE 9 15 29.75 1007 10 16.0934 0 0
4:54 pm 16:54 Cloudy 56 13.3 42 5.6 60 60 NNE 8 13 29.76 1008 10 16.0934 0 0
5:54 pm 17:54 Cloudy 55 12.8 42 5.6 62 62 NE 9 15 29.77 1008 10 16.0934 0 0
6:54 pm 18:54 Cloudy 55 12.8 42 5.6 62 62 NE 9 15 29.76 1008 10 16.0934 0 0
7:54 pm 19:54 Cloudy 51 10.6 41 5 69 69 NNE 10 17 29.76 1008 10 16.0934 0 0
8:54 pm 20:54 Cloudy 50 10 41 5 71 71 NE 16 26 29.77 1008 10 16.0934 0 0
9:54 pm 21:54 Cloudy 49 9.4 41 5 74 74 NE 13 20 29.78 1008 10 16.0934 0 0
10:54 pm 22:54 Cloudy 49 9.4 41 5 74 74 NE 14 22 29.78 1008 10 16.0934 0 0
11:24 pm 23:24 Cloudy 48 8.9 41 5 77 77 NNE 13 20 29.79 1009 10 16.0934 0 0
11:54 pm 23:54 Cloudy 48 8.9 41 5 77 77 NNE 14 22 29.77 1008 10 16.0934 0 0

Powered by AerisWeather